Погода в Мауне

Ботсвана     19°59′32″S   23°25′18″E
темп.,
°C
ветер,
м/с
пор.,
м/с
влажн.,
%
обл.,
%
осадки,
мм/ч
давл.,
гПа
погр.,
м
17 июня, чт
чт1723:00+14юв222726 0.0 101910
02:00+12в22335 0.0 101910
05:00+11вюв11385 0.0 101910
08:00+13всв23360 0.0 102168
11:00+24в22210 0.0 1020698
14:00+29в11140 0.0 10162345
17:00+25юв11170 0.0 101612
20:00+17юв22280 0.0 101912
18 июня, пт
пт1823:00+15вюв33350 0.0 102134
02:00+13в22370 0.0 102121
05:00+12юв22380 0.0 102114
08:00+13вюв26340 0.0 1023135
11:00+24в45190 0.0 1022952
14:00+28вюв23140 0.0 10182786
17:00+26юв24160 0.0 1018124
20:00+17юв310300 0.0 1022157
19 июня, сб
сб1923:00+16юв39320 0.0 1023130
02:00+17вюв514346 0.0 1023592
05:00+16вюв514465 0.0 1023568
08:00+15в514533 0.0 1026684
11:00+22в79393 0.0 10251147
14:00+25в56316 0.0 10211722
17:00+25юв453123 0.0 10201685
20:00+18в365592 0.1 1024143
20 июня, вс
вс2023:00+17юв5115897 0.0 1026479
02:00+15вюв5126799 0.0 1025558
05:00+12вюв4117667 0.0 1026443
08:00+12вюв4137626 0.0 1027463
11:00+21в57425 0.0 10261152
14:00+24вюв45300 0.0 10222217
17:00+23вюв55297 0.0 10212410
20:00+16юв412460 0.0 1024251
21 июня, пн
пн2123:00+14вюв513530 0.0 1025391
02:00+12вюв312730 0.0 1025317
05:00+9вюв311880 0.0 1025258
08:00+10в311810 0.0 1026276
11:00+21всв46380 0.0 10241066
14:00+24в34230 0.0 10202381
17:00+23вюв45230 0.0 10191283
20:00+15юв38460 0.0 1022126